一网星座-0282星 (ONEWEB-0282 )

导读

ONEWEB-0282是英国一网公司OneWeb低轨互联网星座的组网卫星,于2021年7月1日发射升空,是OneWeb星座部署过程中的一颗卫星。一网星座由英国政府联合印度企业控股,目标是建成覆盖全球的低轨卫星互联网,为偏远地区提供高速网络接入。ONEWEB-0282运行于约1200公里近地轨道,配备氙气离子推进器与Ku/Ka波段通信天线,依靠电推进提升轨道,为后续提供全球高速低延迟互联网服务提供支撑。

基本信息
目录编号:
49000
目录名称:
ONEWEB-0282
国际标识:
2021-060AK
轨道中心:
EARTH
卫星名称:
一网星座-0282星
卫星全名:
一网星座-0282星 (ONEWEB-0282 )
卫星状态:
在轨 (已飞行1808 天)
发射日期:
2021-07-01 UTC
国别 :
英国 (GB)
星等 :
--
轨道信息
数据来源 国际轨道数据 AOE轨道数据
星历时间 2026-06-12T13:34:57+0800
19小时前
查看轨道信息
2026-06-09T00:00:00+0800
4天前
查看轨道信息
半长轴 7575.892km 7575.886km
偏心率 0.0001945 0.0002061
轨道倾角 87.910° 87.908°
近地点辐角 101.801° 110.094°
升交点赤经 229.764° 230.471°
平近点角 258.334° 278.037°
近地点 1196.281km 1196.187km
远地点 1199.229km 1199.311km
周期 109.373分钟 109.373分钟
每日圈数 13.165949 13.165964
详细信息
平衡模式:
三轴稳定
覆盖范围:
全球
运营商:
一网卫星公司
运营商所在国:
英国
制造商(研发单位):
一网卫星公司
制造商所在国:
英国
使用方式:
暂无
卫星简介
OneWeb卫星网络由648颗重约125公斤的微型卫星组成,运行在1200公里的轨道上。 每颗卫星都能够提供至少每秒8千兆位的吞吐量,以使用其高吞吐量的Ku频段有效载荷为家庭和移动平台提供互联网接入。该卫星仍在工作。
2D轨道图
3D轨道图
轨道高度分析图
轨道倾角分析图
轨道综合分析图
查看轨道综合分析图